Location: Lichtensteig
(47.3376°N, 9.0841°E)
Time: 20:52:40
(UTC+00:00)

FENGYUN 1C DEB - Pass Details

Date: 26 September 2021
Orbit: 837 x 877 km, 98.7° (Epoch: 18 October)

Event Time Altitude Azimuth Distance (km) Brightness Sun altitude
Rises 17:55:59 0° 170° (S) 3,453 ? -8.1°
Reaches altitude 10° 17:58:22 10° 173° (S) 2,522 ? -8.5°
Maximum altitude 18:03:58 71° 257° (WSW) 927 ? -9.4°
Drops below altitude 10° 18:09:38 10° 342° (NNW) 2,541 ? -10.4°
Sets 18:12:03 0° 344° (NNW) 3,482 ? -10.8°
